 ,,�O�C���x [��],����1,�O�C���x [��],����2,���ԉ��x [��],����3,���Ԏ��x [��],����4,�Q�����x [��],����5,�Q�����x [��],����6,�Q�X�g���[��(��󒲎�)���x [��],����7,���� [��],����8
2003/3/1,0:00,-1.4,0,83.8,0,17.9,0,44.2,0,15.7,0,46.9,0,16.8,0,6.7,0
2003/3/1,0:15,-1.7,0,87.3,0,17.6,0,43.3,0,15.7,0,46.5,0,16.8,0,6.4,0
2003/3/1,0:30,-1.8,0,87.5,0,17.2,0,43.1,0,15.2,0,46.4,0,16.9,0,6.7,0
2003/3/1,0:45,-1.9,0,89.1,0,16.9,0,42.8,0,15,0,46.2,0,16.9,0,6.8,0
2003/3/1,1:00,-1.7,0,88.4,0,16.7,0,42.6,0,14.8,0,45.9,0,16.8,0,6.8,0
2003/3/1,1:15,-1.8,0,88.1,0,16.6,0,42.5,0,14.7,0,45.9,0,16.8,0,6.9,0
2003/3/1,1:30,-1.9,0,90.1,0,16.4,0,42.5,0,14.6,0,46.1,0,16.7,0,7,0
2003/3/1,1:45,-2,0,88.8,0,16.3,0,42.2,0,14.5,0,46,0,16.6,0,7.2,0
2003/3/1,2:00,-1.9,0,89.6,0,16.1,0,42.2,0,14.4,0,46,0,16.5,0,7.3,0
2003/3/1,2:15,-1.9,0,90.2,0,16,0,42.1,0,14.3,0,46.1,0,16.4,0,7.4,0
2003/3/1,2:30,-1.8,0,90,0,15.9,0,41.9,0,14.2,0,46.1,0,16.3,0,7.5,0
2003/3/1,2:45,-1.7,0,89.9,0,15.8,0,41.8,0,14.1,0,46,0,16.1,0,7.6,0
2003/3/1,3:00,-1.7,0,89.8,0,15.6,0,41.8,0,14,0,46,0,16,0,7.7,0
2003/3/1,3:15,-1.6,0,88.7,0,15.5,0,41.6,0,13.9,0,46.3,0,15.9,0,7.8,0
2003/3/1,3:30,-1.6,0,91.1,0,15.4,0,41.7,0,13.9,0,46.3,0,15.8,0,7.9,0
2003/3/1,3:45,-1.6,0,88.3,0,15.3,0,41.6,0,13.8,0,46.3,0,15.7,0,8,0
2003/3/1,4:00,-1.5,0,91,0,15.2,0,41.6,0,13.7,0,46.4,0,15.6,0,8.2,0
2003/3/1,4:15,-1.5,0,90,0,15,0,41.5,0,13.7,0,46.5,0,15.5,0,8.3,0
2003/3/1,4:30,-1.5,0,89.5,0,14.9,0,41.5,0,13.6,0,46.7,0,15.4,0,8.3,0
2003/3/1,4:45,-1.5,0,90.9,0,14.8,0,41.5,0,13.5,0,46.6,0,15.2,0,8.5,0
2003/3/1,5:00,-1.6,0,91.4,0,14.7,0,41.4,0,13.4,0,46.6,0,15.1,0,8.6,0
2003/3/1,5:15,-1.8,0,91.5,0,14.5,0,41.4,0,13.3,0,46.7,0,15,0,8.6,0
2003/3/1,5:30,-1.9,0,91.1,0,14.5,0,41.2,0,13.3,0,46.9,0,14.9,0,8.7,0
2003/3/1,5:45,-2.2,0,90.9,0,14.4,0,41.2,0,13.2,0,47.1,0,14.8,0,8.8,0
2003/3/1,6:00,-2,0,91.3,0,14.3,0,41.3,0,13.1,0,47,0,14.7,0,8.9,0
2003/3/1,6:15,-1.9,0,89.4,0,14.5,0,42.3,0,13.2,0,46.2,0,14.6,0,7.2,0
2003/3/1,6:30,-1.8,0,89.7,0,15.1,0,43.3,0,13.3,0,46.1,0,14.6,0,7.6,0
2003/3/1,6:45,-1.6,0,89.6,0,15.3,0,43.8,0,13.5,0,46.8,0,14.6,0,7.8,0
2003/3/1,7:00,-1.2,0,87.3,0,15.5,0,43.6,0,13.6,0,46.6,0,14.6,0,7.8,0
2003/3/1,7:15,-0.9,0,88.9,0,15.8,0,44.4,0,13.8,0,46.7,0,14.7,0,7.9,0
2003/3/1,7:30,-0.6,0,78.8,0,16,0,44.7,0,13.9,0,46.8,0,14.7,0,8,0
2003/3/1,7:45,-0.4,0,76.9,0,15.8,0,44.1,0,14,0,46.7,0,14.8,0,8.1,0
2003/3/1,8:00,0.3,0,77.9,0,15.9,0,44.6,0,13.8,0,47,0,14.8,0,8.1,0
2003/3/1,8:15,0.7,0,73.2,0,16.1,0,49.2,0,14,0,48.5,0,14.9,0,7.2,0
2003/3/1,8:30,1.3,0,71.6,0,16.1,0,47.3,0,14.1,0,48.3,0,15,0,7.4,0
2003/3/1,8:45,1.7,0,70.2,0,16.2,0,46.1,0,14.1,0,48.1,0,15.1,0,7.4,0
2003/3/1,9:00,1.7,0,73,0,16.7,0,46.5,0,14.5,0,50.1,0,15.2,0,7.7,0
2003/3/1,9:15,2.5,0,67.7,0,16.3,0,44.8,0,14.7,0,49.5,0,15.3,0,7,0
2003/3/1,9:30,3.8,0,60.4,0,15.9,0,45.8,0,14.6,0,48.2,0,15.4,0,7,0
2003/3/1,9:45,4.4,0,59.2,0,15.7,0,45.2,0,14.5,0,47.4,0,15.4,0,7.2,0
2003/3/1,10:00,4.8,0,57.1,0,15.6,0,44.6,0,14.5,0,46.9,0,15.4,0,7.4,0
2003/3/1,10:15,5,0,58,0,15.5,0,44.3,0,14.5,0,46.5,0,15.4,0,7.6,0
2003/3/1,10:30,5.3,0,56.1,0,15.4,0,43.9,0,14.4,0,46.1,0,15.4,0,7.8,0
2003/3/1,10:45,5.7,0,55.3,0,15.3,0,43.7,0,14.4,0,45.9,0,15.4,0,7.9,0
2003/3/1,11:00,6,0,55.1,0,15.3,0,43.5,0,14.4,0,45.7,0,15.4,0,8.1,0
2003/3/1,11:15,6.3,0,56.1,0,15.2,0,43.5,0,14.3,0,45.2,0,15.3,0,8.3,0
2003/3/1,11:30,6.6,0,56.9,0,15.1,0,43.3,0,14.3,0,44.7,0,15.3,0,8.5,0
2003/3/1,11:45,7.2,0,57.2,0,15.1,0,43.1,0,14.3,0,44.5,0,15.2,0,8.7,0
2003/3/1,12:00,7.3,0,60.2,0,15,0,43.1,0,14.2,0,44.2,0,15.2,0,8.9,0
2003/3/1,12:15,7.6,0,59.1,0,15,0,42.9,0,14.2,0,44.5,0,15.1,0,9,0
2003/3/1,12:30,7.8,0,58.2,0,15,0,42.9,0,14.2,0,44.2,0,15.1,0,9.2,0
2003/3/1,12:45,7.8,0,55.7,0,14.9,0,43,0,14.2,0,44.4,0,15.1,0,9.4,0
2003/3/1,13:00,8.1,0,55.3,0,15,0,42.7,0,14.2,0,44.5,0,15,0,9.6,0
2003/3/1,13:15,8.3,0,54.3,0,14.8,0,43.2,0,14.3,0,44.3,0,15,0,9.7,0
2003/3/1,13:30,8.6,0,55.9,0,14.8,0,43.5,0,14.3,0,44.4,0,15,0,9.9,0
2003/3/1,13:45,8.5,0,57.3,0,14.7,0,43.5,0,14.3,0,44.1,0,15,0,10.1,0
2003/3/1,14:00,8.7,0,58.7,0,14.7,0,43.6,0,14.2,0,44,0,15,0,10.3,0
2003/3/1,14:15,8.3,0,61.1,0,14.6,0,43.7,0,14.2,0,43.7,0,14.9,0,10.5,0
2003/3/1,14:30,7.9,0,63.2,0,14.5,0,43.6,0,14.2,0,43.6,0,14.9,0,10.7,0
2003/3/1,14:45,7.5,0,64.2,0,14.5,0,43.6,0,14.1,0,43.6,0,14.8,0,10.9,0
2003/3/1,15:00,6.7,0,71.9,0,14.4,0,43.7,0,14.1,0,43.5,0,14.8,0,11,0
2003/3/1,15:15,6.3,0,82.1,0,14.4,0,43.8,0,14.1,0,43.8,0,14.7,0,11.2,0
2003/3/1,15:30,5.4,0,89.8,0,14.3,0,44,0,14,0,44,0,14.7,0,11.4,0
2003/3/1,15:45,5.1,0,91.7,0,14.3,0,44.2,0,14,0,44.1,0,14.7,0,11.6,0
2003/3/1,16:00,5.1,0,95.2,0,14.2,0,44.4,0,13.9,0,44.3,0,14.6,0,11.7,0
2003/3/1,16:15,4.4,0,93.5,0,14.2,0,44.7,0,13.9,0,44.6,0,14.5,0,11.9,0
2003/3/1,16:30,4,0,95.1,0,14.1,0,44.8,0,13.8,0,44.7,0,14.5,0,12,0
2003/3/1,16:45,3.6,0,97.3,0,14.4,0,45.2,0,13.8,0,44.9,0,14.4,0,12.2,0
2003/3/1,17:00,3.5,0,97.7,0,15,0,44.8,0,13.9,0,45.6,0,14.4,0,7.9,0
2003/3/1,17:15,3.3,0,99.1,0,14.9,0,45.1,0,13.9,0,46,0,14.4,0,7.1,0
2003/3/1,17:30,3,0,99.7,0,14.6,0,45.1,0,13.9,0,46,0,14.4,0,7.2,0
2003/3/1,17:45,3.1,0,100,0,14.5,0,45.2,0,13.8,0,45.9,0,14.4,0,7.3,0
2003/3/1,18:00,3.1,0,100,0,14.4,0,45.3,0,13.8,0,45.9,0,14.4,0,7.5,0
2003/3/1,18:15,3,0,100,0,14.3,0,45.3,0,13.7,0,46,0,14.4,0,7.7,0
2003/3/1,18:30,3,0,100,0,14.3,0,45.5,0,13.7,0,46,0,14.4,0,7.8,0
2003/3/1,18:45,3,0,100,0,14.3,0,45.6,0,13.7,0,46.1,0,14.3,0,8,0
2003/3/1,19:00,2.9,0,100,0,14.2,0,45.7,0,13.6,0,46.2,0,14.3,0,8.2,0
2003/3/1,19:15,3,0,100,0,14.2,0,45.7,0,13.6,0,46.2,0,14.2,0,8.4,0
2003/3/1,19:30,2.9,0,100,0,14.1,0,45.9,0,13.6,0,46.2,0,14.2,0,8.6,0
2003/3/1,19:45,2.9,0,100,0,14.1,0,45.9,0,13.5,0,46.3,0,14.1,0,8.8,0
2003/3/1,20:00,2.8,0,100,0,14,0,45.8,0,13.5,0,46.3,0,14.1,0,9,0
2003/3/1,20:15,2.8,0,100,0,14,0,46,0,13.4,0,46.4,0,14.1,0,9.2,0
2003/3/1,20:30,2.7,0,100,0,13.9,0,45.9,0,13.4,0,46.4,0,14,0,9.3,0
2003/3/1,20:45,2.7,0,100,0,14.4,0,46.3,0,13.4,0,46.5,0,14,0,9.5,0
2003/3/1,21:00,2.7,0,100,0,14.4,0,48.3,0,13.5,0,47.9,0,14,0,7.8,0
2003/3/1,21:15,3,0,100,0,14.8,0,47.4,0,13.6,0,48.2,0,14,0,8.2,0
2003/3/1,21:30,3,0,100,0,14.9,0,47.1,0,13.6,0,48,0,14,0,8.4,0
2003/3/1,21:45,3,0,100,0,15.1,0,46.6,0,13.7,0,48,0,14.1,0,7.4,0
2003/3/1,22:00,3.2,0,100,0,15.5,0,46,0,13.7,0,47.8,0,14.2,0,7.6,0
2003/3/1,22:15,3,0,100,0,15.5,0,46.1,0,13.8,0,47.8,0,14.3,0,7.8,0
2003/3/1,22:30,3,0,100,0,15.4,0,46.7,0,13.8,0,47.8,0,14.3,0,7.9,0
2003/3/1,22:45,3,0,100,0,15.5,0,46.5,0,13.9,0,47.6,0,14.4,0,8.1,0
2003/3/1,23:00,3.2,0,100,0,15.8,0,46.3,0,13.9,0,47.4,0,14.5,0,8.3,0
2003/3/1,23:15,3.4,0,100,0,15.8,0,46.2,0,14,0,47.5,0,14.6,0,7.3,0
2003/3/1,23:30,3.5,0,100,0,16.2,0,46.6,0,14.1,0,47.3,0,14.7,0,6.6,0
2003/3/1,23:45,3.6,0,100,0,16.2,0,47.1,0,14.1,0,47.4,0,14.8,0,7.3,0
2003/3/2,0:00,3.7,0,100,0,16.5,0,45.7,0,14.3,0,49.2,0,14.9,0,7.1,0
2003/3/2,0:15,3.8,0,100,0,16.7,0,46.3,0,14.5,0,49.3,0,15,0,7,0
2003/3/2,0:30,3.9,0,100,0,16.7,0,45.7,0,14.6,0,49.7,0,15.1,0,7.1,0
2003/3/2,0:45,4.1,0,100,0,16.8,0,45.3,0,14.6,0,49.2,0,15.3,0,7.3,0
2003/3/2,1:00,4.2,0,100,0,16.9,0,45.2,0,14.7,0,49,0,15.4,0,7.4,0
2003/3/2,1:15,4.3,0,100,0,16.9,0,45,0,14.8,0,48.8,0,15.5,0,7.6,0
2003/3/2,1:30,4.5,0,100,0,17,0,44.9,0,14.9,0,48.7,0,15.6,0,7.8,0
2003/3/2,1:45,4.7,0,100,0,17.1,0,44.8,0,14.9,0,48.6,0,15.7,0,7.9,0
2003/3/2,2:00,4.9,0,100,0,17.2,0,44.7,0,15,0,48.5,0,15.8,0,8.1,0
2003/3/2,2:15,5.2,0,100,0,17.3,0,44.6,0,15.1,0,48.5,0,16,0,8.3,0
2003/3/2,2:30,5.5,0,100,0,17.3,0,44.6,0,15.2,0,48.4,0,16.1,0,8.5,0
2003/3/2,2:45,5.5,0,100,0,16.8,0,45.6,0,15.1,0,48.6,0,16.1,0,8.7,0
2003/3/2,3:00,5.6,0,100,0,16.6,0,45.7,0,15,0,48.6,0,16.2,0,7.3,0
2003/3/2,3:15,5.5,0,100,0,16.5,0,45.7,0,14.7,0,48.2,0,16.2,0,8.1,0
2003/3/2,3:30,5.1,0,99.9,0,16.4,0,45.8,0,14.6,0,48,0,16.2,0,8.2,0
2003/3/2,3:45,4.7,0,99.8,0,16.2,0,45.8,0,14.6,0,48.1,0,16.2,0,8.4,0
2003/3/2,4:00,4.7,0,98,0,16.1,0,45.7,0,14.5,0,48.4,0,16.2,0,8.5,0
2003/3/2,4:15,4.9,0,94.8,0,16,0,45.6,0,14.4,0,48.5,0,16.1,0,8.7,0
2003/3/2,4:30,4.8,0,95.1,0,15.9,0,45.5,0,14.4,0,48.4,0,16.1,0,8.9,0
2003/3/2,4:45,4.9,0,91.7,0,15.8,0,45.6,0,14.3,0,48.4,0,16,0,9,0
2003/3/2,5:00,4.9,0,89.5,0,15.7,0,45.5,0,14.3,0,48.3,0,15.9,0,9.2,0
2003/3/2,5:15,4.9,0,87.5,0,15.6,0,45.4,0,14.3,0,48.3,0,15.9,0,9.4,0
2003/3/2,5:30,5,0,85.7,0,15.5,0,45.3,0,14.2,0,48.3,0,15.8,0,9.6,0
2003/3/2,5:45,5.2,0,84.4,0,15.5,0,45.2,0,14.2,0,48.2,0,15.7,0,9.7,0
2003/3/2,6:00,5.3,0,83.4,0,15.4,0,45.1,0,14.2,0,48.2,0,15.7,0,9.9,0
2003/3/2,6:15,5.4,0,81.9,0,15.3,0,45.1,0,14.2,0,48.2,0,15.6,0,10.1,0
2003/3/2,6:30,5.5,0,82.3,0,15.3,0,44.9,0,14.2,0,48,0,15.5,0,10.3,0
2003/3/2,6:45,5.6,0,80.7,0,15.2,0,45,0,14.1,0,47.9,0,15.5,0,10.5,0
2003/3/2,7:00,5.8,0,79.1,0,15.1,0,45,0,14.1,0,48.2,0,15.4,0,10.7,0
2003/3/2,7:15,6.1,0,76.7,0,15,0,45.1,0,14.1,0,48,0,15.4,0,10.9,0
2003/3/2,7:30,6.2,0,74.6,0,15,0,45,0,14.1,0,47.9,0,15.3,0,11.1,0
2003/3/2,7:45,6.4,0,73.7,0,14.9,0,45,0,14.1,0,48,0,15.3,0,11.3,0
2003/3/2,8:00,6.4,0,72.8,0,15.5,0,45.2,0,14.2,0,47.6,0,15.2,0,7.6,0
2003/3/2,8:15,6.5,0,71.9,0,15.9,0,45.3,0,14.3,0,47.2,0,15.2,0,8,0
2003/3/2,8:30,6.6,0,72.1,0,16.1,0,45.6,0,14.4,0,48.4,0,15.3,0,8.1,0
2003/3/2,8:45,6.7,0,70.9,0,16.2,0,45.2,0,14.5,0,47.9,0,15.3,0,8.3,0
2003/3/2,9:00,6.9,0,69.9,0,16.4,0,46,0,14.8,0,48.6,0,15.4,0,8.4,0
2003/3/2,9:15,7.3,0,66.7,0,16.8,0,45.2,0,15,0,48.3,0,15.6,0,8.6,0
2003/3/2,9:30,7.6,0,61.8,0,17.1,0,44.5,0,15.2,0,47.6,0,15.8,0,6.7,0
2003/3/2,9:45,8,0,58.9,0,17.1,0,44.1,0,15.4,0,47.3,0,15.9,0,7.3,0
2003/3/2,10:00,8.2,0,56,0,17.1,0,43.9,0,15.5,0,46.8,0,16.1,0,7.3,0
2003/3/2,10:15,8.4,0,57.5,0,17.3,0,44,0,15.7,0,46.1,0,16.3,0,7.5,0
2003/3/2,10:30,8.3,0,57.9,0,17.5,0,44.8,0,16,0,46.6,0,16.4,0,7.7,0
2003/3/2,10:45,8.8,0,57.3,0,17.9,0,44,0,16.2,0,46.4,0,16.6,0,7.9,0
2003/3/2,11:00,8.9,0,55.8,0,18,0,43.4,0,16.4,0,45.7,0,16.8,0,8.1,0
2003/3/2,11:15,9,0,56.1,0,17.9,0,43.7,0,16.5,0,45.7,0,17,0,8.3,0
2003/3/2,11:30,9,0,48.9,0,18,0,43,0,16.7,0,45.2,0,17.1,0,8.4,0
2003/3/2,11:45,8.9,0,48.9,0,18,0,42.8,0,16.8,0,44.7,0,17.2,0,8.7,0
2003/3/2,12:00,9.1,0,45,0,17.8,0,43.2,0,16.9,0,45,0,17.3,0,8.9,0
2003/3/2,12:15,9,0,42.8,0,17.6,0,43.2,0,16.9,0,44.8,0,17.4,0,7.5,0
2003/3/2,12:30,9.1,0,43.4,0,17.3,0,42.6,0,16.9,0,44.2,0,17.5,0,7.5,0
2003/3/2,12:45,9,0,44.7,0,17.1,0,42.5,0,16.8,0,44.1,0,17.5,0,7.6,0
2003/3/2,13:00,9.2,0,44.5,0,17,0,42.7,0,16.7,0,44.1,0,17.5,0,7.8,0
2003/3/2,13:15,9.1,0,42.7,0,16.9,0,42.7,0,16.6,0,44,0,17.5,0,7.9,0
2003/3/2,13:30,8.9,0,46.1,0,16.8,0,42.7,0,16.6,0,43.8,0,17.5,0,8.1,0
2003/3/2,13:45,8.2,0,50,0,16.9,0,42.3,0,16.6,0,43.6,0,17.4,0,8.3,0
2003/3/2,14:00,8.1,0,51.8,0,16.9,0,42.5,0,16.6,0,43.7,0,17.5,0,8.4,0
2003/3/2,14:15,8.6,0,43.1,0,16.9,0,42.2,0,16.7,0,43.9,0,17.5,0,8.6,0
2003/3/2,14:30,8.9,0,41.7,0,17,0,42.1,0,16.8,0,43.5,0,17.5,0,8.8,0
2003/3/2,14:45,9.2,0,40.8,0,17,0,41.5,0,16.9,0,43,0,17.6,0,9,0
2003/3/2,15:00,8.8,0,42.5,0,17,0,41.3,0,16.9,0,42.7,0,17.7,0,9.2,0
2003/3/2,15:15,8.6,0,42.7,0,17.1,0,41.3,0,17,0,42.5,0,17.8,0,9.4,0
2003/3/2,15:30,8.5,0,40.2,0,17.1,0,41.2,0,17,0,42.2,0,18,0,9.6,0
2003/3/2,15:45,8.2,0,38.8,0,17,0,40.8,0,17.1,0,41.9,0,18.1,0,9.8,0
2003/3/2,16:00,7.8,0,38.4,0,17,0,40.5,0,17.1,0,41.5,0,18.8,0,10,0
2003/3/2,16:15,7.4,0,40.3,0,16.9,0,40.1,0,17,0,41.4,0,20.6,0,10.2,0
2003/3/2,16:30,7.1,0,41.6,0,16.8,0,40.2,0,17,0,41.4,0,19.8,0,10.4,0
2003/3/2,16:45,6.9,0,41,0,16.7,0,40,0,16.9,0,41.4,0,19.1,0,10.6,0
2003/3/2,17:00,6.7,0,41,0,16.5,0,40.2,0,16.8,0,41.2,0,18.6,0,10.8,0
2003/3/2,17:15,6.3,0,42.9,0,16.3,0,40.3,0,16.7,0,41.9,0,18.3,0,11,0
2003/3/2,17:30,6,0,44.8,0,16.2,0,40,0,16.5,0,42.4,0,17.9,0,11.2,0
2003/3/2,17:45,5.8,0,47.2,0,16,0,39.7,0,16.4,0,42.4,0,17.7,0,11.4,0
2003/3/2,18:00,5.6,0,48.9,0,15.7,0,40.9,0,16.3,0,42.9,0,17.4,0,7.8,0
2003/3/2,18:15,5.4,0,49.6,0,16.6,0,40.9,0,16.2,0,43,0,17.2,0,8.8,0
2003/3/2,18:30,5.2,0,50.2,0,16.8,0,41.7,0,16.3,0,42.8,0,17.1,0,9.1,0
2003/3/2,18:45,4.8,0,55,0,17.2,0,40.9,0,16.3,0,43,0,17,0,9.3,0
2003/3/2,19:00,4.3,0,61.1,0,17.7,0,43.1,0,16.3,0,44.3,0,17,0,9.5,0
2003/3/2,19:15,3.6,0,67.2,0,17.9,0,43.9,0,16.4,0,46.3,0,17,0,9.7,0
2003/3/2,19:30,3.5,0,65.7,0,17.9,0,43.1,0,16.4,0,45.6,0,17.1,0,9.9,0
2003/3/2,19:45,3.7,0,63.4,0,18,0,42.1,0,16.3,0,45.3,0,17.1,0,10.1,0
2003/3/2,20:00,3.7,0,63.9,0,18.2,0,41.5,0,16.3,0,45.1,0,17.2,0,10.3,0
2003/3/2,20:15,4,0,58.7,0,18.1,0,41.3,0,16.3,0,44.9,0,17.2,0,10.5,0
2003/3/2,20:30,4.1,0,56.4,0,18,0,41.1,0,16.3,0,44.6,0,17.2,0,10.7,0
2003/3/2,20:45,4.3,0,61.1,0,18.3,0,40.5,0,16.3,0,44.7,0,17.3,0,10.9,0
2003/3/2,21:00,4.3,0,54.1,0,18.5,0,40,0,16.3,0,44.6,0,17.3,0,11.1,0
2003/3/2,21:15,4.4,0,56.9,0,18.5,0,39.8,0,16.3,0,44.5,0,17.3,0,11.3,0
2003/3/2,21:30,3.7,0,62.9,0,18.6,0,39.6,0,16.3,0,44.5,0,17.4,0,11.4,0
2003/3/2,21:45,3.8,0,66.6,0,18.1,0,41.9,0,16.3,0,44.6,0,17.4,0,8.5,0
2003/3/2,22:00,3.3,0,66.5,0,17.8,0,40.7,0,16.2,0,44.4,0,17.4,0,8.7,0
2003/3/2,22:15,2.9,0,67.9,0,17.6,0,41.2,0,16.1,0,44.4,0,17.4,0,8.9,0
2003/3/2,22:30,2.5,0,71.8,0,17.5,0,41.1,0,16,0,44.5,0,17.4,0,9.1,0
2003/3/2,22:45,2.4,0,72.5,0,17.5,0,42.1,0,15.9,0,44.9,0,17.3,0,7.8,0
2003/3/2,23:00,2.6,0,74.7,0,17.7,0,42.3,0,16.1,0,45.3,0,17.3,0,8.1,0
2003/3/2,23:15,2.1,0,77.9,0,17.5,0,41.9,0,16,0,45.3,0,17.3,0,8.2,0
2003/3/2,23:30,1.7,0,80.1,0,17.4,0,41.9,0,16,0,45.1,0,17.3,0,8.3,0
2003/3/2,23:45,1.4,0,79.4,0,17.3,0,41.4,0,16,0,44.8,0,17.3,0,8.4,0
2003/3/3,0:00,2.7,0,74,0,17.3,0,41.2,0,16,0,44.6,0,17.3,0,8.6,0
2003/3/3,0:15,3.7,0,66.7,0,17,0,40.9,0,15.8,0,44,0,17.2,0,8.7,0
2003/3/3,0:30,2.3,0,78.8,0,16.8,0,40.6,0,15.8,0,44,0,17.2,0,8.8,0
2003/3/3,0:45,2.2,0,82.1,0,16.6,0,40.4,0,15.7,0,43.9,0,17.1,0,9,0
2003/3/3,1:00,1.5,0,83.4,0,16.5,0,40.7,0,15.6,0,43.9,0,17,0,9.1,0
2003/3/3,1:15,1.6,0,81.2,0,16.4,0,41.2,0,15.5,0,43.9,0,16.9,0,9.2,0
2003/3/3,1:30,1.4,0,83.7,0,16.2,0,40.9,0,15.4,0,43.8,0,16.8,0,9.3,0
2003/3/3,1:45,1.4,0,83.8,0,16.1,0,41.2,0,15.4,0,43.6,0,16.7,0,9.5,0
2003/3/3,2:00,1.4,0,83.7,0,16,0,41.2,0,15.3,0,43.6,0,16.5,0,9.6,0
2003/3/3,2:15,1.6,0,84.8,0,15.9,0,41.1,0,15.2,0,43.5,0,16.4,0,9.7,0
2003/3/3,2:30,1.4,0,85.6,0,15.8,0,40.7,0,15.1,0,43.7,0,16.3,0,9.8,0
2003/3/3,2:45,1.3,0,85.6,0,15.6,0,40.8,0,15.1,0,43.7,0,16.2,0,9.9,0
2003/3/3,3:00,1.4,0,86.7,0,15.5,0,41,0,15,0,43.6,0,16.1,0,10,0
2003/3/3,3:15,1.1,0,88.1,0,15.4,0,40.9,0,15,0,43.7,0,16,0,10.1,0
2003/3/3,3:30,0.6,0,91.1,0,15.3,0,41.2,0,14.9,0,43.6,0,15.9,0,10.3,0
2003/3/3,3:45,0.5,0,93.6,0,15.2,0,41.2,0,14.9,0,43.5,0,15.8,0,10.4,0
2003/3/3,4:00,0.4,0,93.6,0,15,0,41.3,0,14.8,0,43.7,0,15.7,0,10.5,0
2003/3/3,4:15,0.6,0,94.1,0,14.9,0,41.4,0,14.8,0,43.7,0,15.6,0,10.6,0
2003/3/3,4:30,0.6,0,94,0,14.8,0,41.5,0,14.7,0,43.7,0,15.5,0,10.7,0
2003/3/3,4:45,0.9,0,93.9,0,14.8,0,41.6,0,14.6,0,43.7,0,15.4,0,10.8,0
2003/3/3,5:00,1,0,95.1,0,14.7,0,41.8,0,14.6,0,43.9,0,15.3,0,10.9,0
2003/3/3,5:15,1,0,95.7,0,14.6,0,41.9,0,14.5,0,43.8,0,15.2,0,11,0
2003/3/3,5:30,0.7,0,95.8,0,14.5,0,41.9,0,14.5,0,43.9,0,15.1,0,11.1,0
2003/3/3,5:45,0.6,0,95.8,0,14.4,0,42.1,0,14.4,0,43.9,0,15,0,11.1,0
2003/3/3,6:00,0.4,0,97.2,0,14.3,0,42.1,0,14.3,0,44.3,0,14.9,0,11.2,0
2003/3/3,6:15,0.3,0,96.8,0,14.3,0,42.5,0,14.2,0,44.4,0,14.8,0,8.2,0
2003/3/3,6:30,0.2,0,96.8,0,14.8,0,43.5,0,14.2,0,44,0,14.8,0,8.5,0
2003/3/3,6:45,0.2,0,97.5,0,15.2,0,42.9,0,14.3,0,44.2,0,14.7,0,8.7,0
2003/3/3,7:00,0.1,0,97.9,0,15.6,0,42.2,0,14.4,0,44.7,0,14.7,0,8.7,0
2003/3/3,7:15,0.4,0,96.3,0,15.4,0,43.3,0,14.3,0,44.7,0,14.7,0,7.6,0
2003/3/3,7:30,1,0,97.2,0,16,0,45.1,0,14.4,0,46.3,0,14.8,0,7.9,0
2003/3/3,7:45,1.1,0,93.8,0,15.9,0,47,0,14.5,0,47.3,0,14.9,0,8,0
2003/3/3,8:00,1.8,0,94.2,0,16.1,0,46.2,0,14.6,0,46.8,0,15,0,7.1,0
2003/3/3,8:15,2,0,91.7,0,16.6,0,44.7,0,14.8,0,46,0,15.1,0,7.2,0
2003/3/3,8:30,3.1,0,79.3,0,17.1,0,43.9,0,15.1,0,46.7,0,15.3,0,6.9,0
2003/3/3,8:45,4.4,0,71.4,0,16.7,0,43.9,0,15,0,45.2,0,15.4,0,6.9,0
2003/3/3,9:00,5.3,0,75.4,0,16.1,0,43.6,0,14.8,0,45,0,15.5,0,7,0
2003/3/3,9:15,5.5,0,69.5,0,15.8,0,43.2,0,14.8,0,44.6,0,15.6,0,7.2,0
2003/3/3,9:30,6.3,0,66.2,0,15.7,0,43.4,0,15,0,45,0,15.6,0,7.3,0
2003/3/3,9:45,6.9,0,60.1,0,15.6,0,43.2,0,14.9,0,44.4,0,15.7,0,7.5,0
2003/3/3,10:00,6.9,0,60.5,0,15.4,0,43.4,0,14.9,0,43.2,0,15.6,0,7.6,0
2003/3/3,10:15,6.9,0,57,0,15.3,0,43.2,0,14.8,0,42.8,0,15.6,0,7.8,0
2003/3/3,10:30,6.8,0,59.6,0,15.2,0,43.1,0,14.8,0,42.5,0,15.6,0,7.9,0
2003/3/3,10:45,7.1,0,62.1,0,15.2,0,42.9,0,14.8,0,42.5,0,15.5,0,8.1,0
2003/3/3,11:00,8.2,0,64.6,0,15.1,0,43.1,0,14.8,0,43.2,0,15.5,0,8.2,0
2003/3/3,11:15,8.2,0,62.6,0,15.1,0,43,0,15,0,43.9,0,15.5,0,8.3,0
2003/3/3,11:30,8.7,0,58.1,0,15.1,0,43,0,15.2,0,43.7,0,15.5,0,8.5,0
2003/3/3,11:45,9.2,0,56.8,0,15.1,0,42.9,0,15.3,0,43.6,0,15.6,0,8.6,0
2003/3/3,12:00,9.2,0,62.3,0,15.1,0,42.7,0,15.2,0,44.1,0,15.6,0,8.7,0
2003/3/3,12:15,8.8,0,62,0,15.1,0,42.8,0,15.2,0,44.2,0,15.6,0,8.9,0
2003/3/3,12:30,9.3,0,59.3,0,15.1,0,42.8,0,15.3,0,43.8,0,15.6,0,9,0
2003/3/3,12:45,9.8,0,62.5,0,15.2,0,43,0,15.5,0,43.5,0,15.7,0,9.1,0
2003/3/3,13:00,9.6,0,62.9,0,15.2,0,43.1,0,15.5,0,43.7,0,15.7,0,9.2,0
2003/3/3,13:15,9.6,0,63.1,0,15.1,0,43.5,0,15.4,0,44.2,0,15.8,0,9.3,0
2003/3/3,13:30,9.4,0,65.3,0,15,0,43.7,0,15.4,0,44.3,0,15.8,0,9.4,0
2003/3/3,13:45,9.6,0,66.3,0,15,0,43.8,0,15.3,0,44.3,0,15.8,0,9.5,0
2003/3/3,14:00,9.5,0,66.6,0,15,0,44,0,15.3,0,44.3,0,15.7,0,9.6,0
2003/3/3,14:15,9.8,0,66.8,0,14.9,0,44.1,0,15.3,0,44.4,0,15.7,0,9.7,0
2003/3/3,14:30,10.1,0,65.8,0,14.9,0,44.2,0,15.4,0,44.4,0,15.8,0,9.8,0
2003/3/3,14:45,9.9,0,68,0,15,0,44.3,0,15.4,0,44.3,0,15.8,0,9.9,0
2003/3/3,15:00,9.8,0,67.1,0,15,0,44.5,0,15.5,0,44.4,0,15.9,0,10,0
2003/3/3,15:15,9.7,0,69.8,0,15,0,44.7,0,15.5,0,44.4,0,15.9,0,10.2,0
2003/3/3,15:30,9.3,0,71.5,0,15,0,44.8,0,15.6,0,44.5,0,16,0,10.3,0
2003/3/3,15:45,9.4,0,72.9,0,15,0,45.3,0,15.6,0,44.5,0,16.1,0,10.4,0
2003/3/3,16:00,8.8,0,76.5,0,15.9,0,44.6,0,15.6,0,43.8,0,16.1,0,10.5,0
2003/3/3,16:15,8.6,0,77.7,0,16.3,0,44,0,15.7,0,44.1,0,16.1,0,10.6,0
2003/3/3,16:30,8.4,0,79.3,0,16.5,0,43.9,0,15.7,0,44.3,0,16.1,0,10.7,0
2003/3/3,16:45,8.2,0,77.8,0,16.7,0,43.6,0,15.7,0,44.5,0,16.1,0,10.8,0
2003/3/3,17:00,8.1,0,80.5,0,16.9,0,43.5,0,15.7,0,44.7,0,16.2,0,10.9,0
2003/3/3,17:15,7.9,0,83.3,0,17.1,0,43.3,0,15.7,0,44.9,0,16.3,0,11,0
2003/3/3,17:30,7.7,0,83.9,0,17.3,0,43,0,15.7,0,45,0,16.3,0,11.1,0
2003/3/3,17:45,7.5,0,84.6,0,17.4,0,42.9,0,15.7,0,45.2,0,16.4,0,11.1,0
2003/3/3,18:00,7.6,0,82.2,0,17.4,0,43.2,0,15.8,0,45.3,0,16.5,0,8.3,0
2003/3/3,18:15,8.4,0,75.6,0,17.3,0,43.6,0,15.8,0,45.5,0,16.5,0,8.6,0
2003/3/3,18:30,8.6,0,71.1,0,17.2,0,43.6,0,15.8,0,45.6,0,16.6,0,8.8,0
2003/3/3,18:45,7.4,0,76,0,17.4,0,43.5,0,15.8,0,45.7,0,16.7,0,8.9,0
2003/3/3,19:00,7,0,68.3,0,17.8,0,42.8,0,15.8,0,45.7,0,16.8,0,9,0
2003/3/3,19:15,6.4,0,72.1,0,17.5,0,43.5,0,15.9,0,46,0,16.9,0,9.1,0
2003/3/3,19:30,6.2,0,72.4,0,18.2,0,43.4,0,15.9,0,46.3,0,16.9,0,9.2,0
2003/3/3,19:45,5.1,0,74.6,0,17.6,0,44.3,0,15.8,0,46.3,0,17,0,9.3,0
2003/3/3,20:00,4.8,0,75.4,0,17.2,0,45.1,0,15.8,0,47,0,17.1,0,9.4,0
2003/3/3,20:15,4.6,0,74.8,0,17.5,0,46.1,0,15.8,0,47.2,0,17.1,0,9.4,0
2003/3/3,20:30,4.8,0,72.3,0,17.6,0,45.4,0,15.9,0,47.2,0,17.1,0,9.5,0
2003/3/3,20:45,4.5,0,72.3,0,17.3,0,43.7,0,15.8,0,47,0,17.2,0,9.6,0
2003/3/3,21:00,4.5,0,69.3,0,17.6,0,44.1,0,15.8,0,46.5,0,17.2,0,7.2,0
2003/3/3,21:15,4.3,0,68.6,0,17.7,0,43.5,0,15.8,0,46.5,0,17.2,0,7.9,0
2003/3/3,21:30,4.1,0,66.2,0,17.9,0,42.7,0,15.9,0,46.4,0,17.2,0,8.1,0
2003/3/3,21:45,3.8,0,67.3,0,18,0,42.3,0,15.9,0,46.3,0,17.2,0,8.3,0
2003/3/3,22:00,3.6,0,65.4,0,18.2,0,41.6,0,15.9,0,46.1,0,17.2,0,8.4,0
2003/3/3,22:15,3.1,0,71.4,0,18,0,41.6,0,15.9,0,46,0,17.3,0,8.4,0
2003/3/3,22:30,2.9,0,71.9,0,18.2,0,41.4,0,15.9,0,45.9,0,17.3,0,7.3,0
2003/3/3,22:45,2.7,0,70.7,0,18.1,0,42.1,0,15.9,0,45.9,0,17.3,0,7.6,0
2003/3/3,23:00,2.8,0,70.7,0,18.3,0,42.3,0,15.9,0,46,0,17.4,0,7.7,0
2003/3/3,23:15,2.6,0,71.8,0,18.2,0,41.7,0,16,0,46.4,0,17.4,0,7.8,0
2003/3/3,23:30,2.6,0,74,0,17.7,0,41.7,0,15.9,0,45.9,0,17.5,0,7.9,0
2003/3/3,23:45,2.2,0,75.2,0,17.4,0,41.5,0,15.8,0,45.7,0,17.5,0,8,0
2003/3/4,0:00,2.2,0,75.1,0,17.3,0,41.4,0,15.7,0,45.2,0,17.4,0,8.1,0
2003/3/4,0:15,1.7,0,75.9,0,17.1,0,41.3,0,15.7,0,45,0,17.3,0,8.2,0
2003/3/4,0:30,1.3,0,75.4,0,16.9,0,41.3,0,15.6,0,44.9,0,17.3,0,8.3,0
2003/3/4,0:45,0.9,0,78.1,0,16.8,0,42.6,0,15.6,0,48.2,0,17.2,0,8.4,0
2003/3/4,1:00,0.6,0,78.4,0,16.7,0,43,0,15.6,0,49.6,0,17.2,0,8.5,0
2003/3/4,1:15,0.2,0,79.8,0,16.5,0,43.6,0,15.5,0,50.4,0,17,0,8.6,0
2003/3/4,1:30,-0.2,0,82.3,0,16.4,0,43.7,0,15.5,0,50.9,0,16.9,0,8.7,0
2003/3/4,1:45,-0.2,0,81.3,0,16.2,0,43.8,0,15.4,0,50.7,0,16.7,0,8.8,0
2003/3/4,2:00,-0.6,0,84.3,0,16,0,43.9,0,15.4,0,50.9,0,16.6,0,8.9,0
2003/3/4,2:15,-0.8,0,84.1,0,15.9,0,43.8,0,15.3,0,51,0,16.4,0,9,0
2003/3/4,2:30,-0.8,0,85.5,0,15.7,0,43.8,0,15.2,0,51,0,16.2,0,9.1,0
2003/3/4,2:45,-1.2,0,89.2,0,15.6,0,44,0,15.2,0,51,0,16.1,0,9.2,0
2003/3/4,3:00,-0.9,0,80.7,0,15.4,0,44.3,0,15.1,0,51,0,15.9,0,9.3,0
2003/3/4,3:15,-0.9,0,78.9,0,15.3,0,44.3,0,15,0,50.8,0,15.8,0,9.4,0
2003/3/4,3:30,-1.1,0,80,0,15.2,0,44,0,14.9,0,50.8,0,15.6,0,9.5,0
2003/3/4,3:45,-1,0,77.7,0,15,0,43.9,0,14.9,0,50.7,0,15.5,0,9.6,0
2003/3/4,4:00,-1.6,0,85.9,0,14.9,0,43.8,0,14.8,0,50.8,0,15.4,0,9.7,0
2003/3/4,4:15,-1.6,0,86,0,14.8,0,44,0,14.8,0,50.7,0,15.2,0,9.8,0
2003/3/4,4:30,-1.7,0,83.2,0,14.7,0,44.4,0,14.7,0,50.7,0,15.1,0,9.8,0
2003/3/4,4:45,-1.8,0,83.5,0,14.6,0,44.1,0,14.6,0,50.6,0,15,0,9.9,0
2003/3/4,5:00,-1.8,0,83.7,0,14.5,0,44.5,0,14.6,0,50.5,0,14.9,0,10,0
2003/3/4,5:15,-1.5,0,76.8,0,14.4,0,44.5,0,14.5,0,50.5,0,14.8,0,10.1,0
2003/3/4,5:30,-1.4,0,75.7,0,14.3,0,44.8,0,14.5,0,50.5,0,14.7,0,10.2,0
2003/3/4,5:45,-1.3,0,69.1,0,14.2,0,44.4,0,14.4,0,50.2,0,14.6,0,10.3,0
2003/3/4,6:00,-1.2,0,65.7,0,14.1,0,44.2,0,14.3,0,50,0,14.5,0,10.4,0
2003/3/4,6:15,-1.2,0,64.6,0,14,0,44.3,0,14.2,0,49.8,0,14.4,0,10.5,0
2003/3/4,6:30,-1.1,0,65.4,0,13.9,0,44.3,0,14.2,0,49.6,0,14.3,0,10.6,0
2003/3/4,6:45,-0.9,0,73.5,0,13.9,0,44.4,0,14.1,0,49.5,0,14.3,0,10.7,0
2003/3/4,7:00,-0.8,0,68.9,0,13.8,0,44.4,0,14.1,0,50,0,14.2,0,10.7,0
2003/3/4,7:15,-0.8,0,75.8,0,13.8,0,44.1,0,14,0,49.4,0,14.1,0,10.8,0
2003/3/4,7:30,-2.1,0,97.8,0,14.3,0,49.6,0,14,0,49.5,0,14.1,0,8.4,0
2003/3/4,7:45,-1.6,0,96.2,0,14.4,0,51,0,14,0,50,0,14.1,0,8.6,0
2003/3/4,8:00,-1.3,0,91.6,0,14.6,0,50.6,0,14.1,0,49.8,0,14.1,0,8.7,0
2003/3/4,8:15,-1.1,0,92.3,0,14.9,0,49.3,0,14.1,0,49.9,0,14.1,0,7,0
2003/3/4,8:30,-0.6,0,90.2,0,15.1,0,50.3,0,14.2,0,48.8,0,14.2,0,7,0
2003/3/4,8:45,-0.9,0,87.1,0,15.6,0,49.4,0,14.2,0,49.7,0,14.3,0,6.5,0
2003/3/4,9:00,-0.6,0,85.8,0,15.6,0,49.7,0,14.2,0,49.5,0,14.4,0,7,0
2003/3/4,9:15,-0.7,0,85.3,0,15,0,47.8,0,14.2,0,49.7,0,14.5,0,7.1,0
2003/3/4,9:30,-0.6,0,86,0,14.8,0,47.8,0,14.2,0,49.2,0,14.5,0,7.2,0
2003/3/4,9:45,-0.5,0,86.6,0,14.6,0,46.6,0,14.2,0,48.7,0,14.6,0,7.3,0
2003/3/4,10:00,-0.3,0,84.4,0,14.5,0,45.9,0,14.1,0,48.3,0,14.6,0,7.5,0
2003/3/4,10:15,-0.7,0,86.7,0,14.4,0,45.6,0,14,0,48.4,0,14.5,0,7.6,0
2003/3/4,10:30,-1,0,94.2,0,14.3,0,45.3,0,14,0,48.3,0,14.5,0,7.7,0
2003/3/4,10:45,-1.2,0,96.9,0,14.1,0,45.4,0,14,0,48.1,0,14.5,0,7.9,0
2003/3/4,11:00,-1.7,0,98.8,0,14.1,0,45.5,0,13.9,0,47.6,0,14.4,0,8,0
2003/3/4,11:15,-1.8,0,100,0,14,0,45.6,0,13.8,0,47.6,0,14.4,0,8.1,0
2003/3/4,11:30,-1.3,0,90.8,0,13.9,0,45.1,0,13.8,0,47.7,0,14.3,0,8.3,0
2003/3/4,11:45,-1.2,0,87.1,0,13.9,0,45.2,0,13.9,0,47.3,0,14.3,0,8.4,0
2003/3/4,12:00,-0.1,0,82.5,0,13.8,0,45.2,0,13.9,0,47,0,14.3,0,8.5,0
2003/3/4,12:15,-1,0,77.3,0,13.7,0,45.2,0,13.9,0,47,0,14.2,0,8.6,0
2003/3/4,12:30,0.2,0,69.9,0,13.8,0,45.4,0,14.1,0,46.7,0,14.3,0,8.7,0
2003/3/4,12:45,0.5,0,59.9,0,13.7,0,44,0,14.1,0,46.3,0,14.2,0,8.8,0
2003/3/4,13:00,0.8,0,53.1,0,13.6,0,44.2,0,14,0,46.4,0,14.2,0,9,0
2003/3/4,13:15,1,0,48.9,0,13.5,0,43.7,0,14,0,46.2,0,14.2,0,9.1,0
2003/3/4,13:30,1.1,0,43,0,13.5,0,43.5,0,14.1,0,46.1,0,14.2,0,9.2,0
2003/3/4,13:45,1.3,0,52.2,0,13.5,0,43.2,0,14,0,45.8,0,14.1,0,9.3,0
2003/3/4,14:00,1.1,0,49.9,0,13.4,0,42.5,0,14,0,45.7,0,14.1,0,9.4,0
2003/3/4,14:15,0.1,0,60,0,13.2,0,42.1,0,13.8,0,45.5,0,14.1,0,9.4,0
2003/3/4,14:30,-0.8,0,77,0,13.1,0,42.3,0,13.6,0,46.1,0,14,0,9.5,0
2003/3/4,14:45,-1.6,0,87.8,0,13,0,42.5,0,13.6,0,45.9,0,13.9,0,9.6,0
2003/3/4,15:00,-1.2,0,79.4,0,12.9,0,42.5,0,13.5,0,45.7,0,13.8,0,9.7,0